Location: Dornbirn
(47.4124°N, 9.7438°E)
Time: 16:04:09
(UTC+01:00)

ISS - Visible Passes

Search period start: 20 March 2019 00:00
Search period end: 30 March 2019 00:00
Orbit: 406 x 411 km, 51.6° (Epoch: 21 March)

Date Brightness Start Highest point End Pass type
(mag) Time Alt. Az. Time Alt. Az. Time Alt. Az.
21 Mar -2.0 20:27:26 10° SW 20:28:53 22° SSW 20:28:53 22° SSW visible
22 Mar -2.5 19:36:56 10° SSW 19:39:39 24° SE 19:40:45 20° ESE visible
22 Mar -1.2 21:12:41 10° WSW 21:13:32 17° WSW 21:13:32 17° WSW visible
23 Mar -4.0 20:21:38 10° WSW 20:24:55 78° SSE 20:25:12 70° E visible
24 Mar -3.5 19:30:43 10° SW 19:33:55 49° SSE 19:36:40 13° ENE visible
24 Mar -2.0 21:07:19 10° W 21:09:25 32° WNW 21:09:25 32° WNW visible
25 Mar -3.4 20:16:06 10° W 20:19:22 61° NNW 20:20:43 31° NE visible
25 Mar -0.4 21:53:10 10° WNW 21:53:28 12° WNW 21:53:28 12° WNW visible
26 Mar -3.8 19:24:58 10° WSW 19:28:16 86° NNW 19:31:35 10° ENE visible
26 Mar -2.4 21:01:57 10° WNW 21:04:39 36° NNW 21:04:39 36° NNW visible
27 Mar -2.8 20:10:42 10° W 20:13:53 43° N 20:15:43 21° NE visible
27 Mar -0.7 21:47:40 10° WNW 21:48:28 16° WNW 21:48:28 16° WNW visible
28 Mar -3.1 19:19:26 10° W 19:22:41 53° NNW 19:25:56 10° ENE visible
28 Mar -2.6 20:56:30 10° WNW 20:59:28 38° N 20:59:28 38° N visible
29 Mar -2.6 20:05:16 10° WNW 20:08:23 37° N 20:10:25 18° ENE visible
29 Mar -1.0 21:42:01 10° WNW 21:43:08 19° WNW 21:43:08 19° WNW visible
